Home   Weather   Choloma   Past weeks

Flag for Honduras Past Weather in Choloma, Honduras — Yesterday and Last 2 Weeks

Now
84 °F

Partly sunny.


Feels Like: 96 °F
Forecast: 75 / 87 °F
Wind: 2 mph from Southwest

Location: La Mesa San Pedro Sula

Current Time: Sep 27, 2016 at 9:40:22 AM

Latest Report: Sep 27, 2016 at 9:00 AM


Visibility: N/A

Pressure: 29.92 "Hg

Humidity: 84%

Dew Point: 79 °F

Location of CholomaLocation

Past Weather in Choloma — Graph

°F

Choloma Temperature Yesterday

Maximum temperature yesterday: 93 °F (at 2:00 PM)
Minimum temperature yesterday: 77 °F (at 2:00 AM)
Average temperature yesterday: 84 °F

High & Low Weather Summary for the Past Weeks

 TemperatureHumidityPressure
High95 °F (Sep 15, 1:00 PM)100% (Sep 12, 8:00 AM)30.09 "Hg (Sep 12, 8:00 AM)
Low68 °F (Sep 22, 9:28 PM)53% (Sep 15, 2:00 PM)29.74 "Hg (Sep 26, 4:00 PM)
Average82 °F89%29.89 "Hg
* Reported Sep 12 8:00 AM — Sep 27 8:00 AM, Choloma, Weather by CustomWeather, © 2016

Note: Actual official high and low records may vary slightly from our data, if they occured in-between our weather recording intervals... More about our weather records

Advertising

Choloma Weather History for the Previous 24 Hours

Scroll right to see more
 ConditionsComfort  
Time TempWeatherWind HumidityBarometerVisibility
8:00 AM
Tue, Sep 27
82 °FPartly sunny.5 mph89%29.89 "HgN/A
7:00 AM81 °FPartly sunny.2 mph89%29.89 "HgN/A
6:00 AM77 °FPartly sunny.5 mph100%29.86 "HgN/A
12:00 AM81 °FPassing clouds.5 mph89%29.86 "HgN/A
11:00 PM
Mon, Sep 26
82 °FPassing clouds.No wind89%29.86 "HgN/A
10:00 PM82 °FPassing clouds.5 mph89%29.89 "HgN/A
9:00 PM82 °FPassing clouds.5 mph89%29.89 "HgN/A
8:00 PM82 °FPassing clouds.6 mph89%29.86 "HgN/A
6:00 PM84 °FPassing clouds.12 mph89%29.80 "HgN/A
5:00 PM88 °FPassing clouds.14 mph79%29.77 "HgN/A
4:00 PM90 °FScattered clouds.14 mph79%29.74 "HgN/A
3:00 PM91 °FPartly sunny.1 mph71%29.77 "HgN/A
2:00 PM93 °FPartly sunny.9 mph59%29.77 "HgN/A
1:00 PM91 °FPartly sunny.No wind59%29.83 "HgN/A
12:00 PM91 °FPartly sunny.5 mph67%29.86 "HgN/A
11:00 AM90 °FPartly sunny.No wind67%29.89 "HgN/A
10:00 AM86 °FPartly sunny.6 mph84%29.89 "HgN/A
9:00 AM84 °FPartly sunny.5 mph89%29.89 "HgN/A
Weather by CustomWeather, © 2016

See weather overviewHow to use our weather pages